Location: Gönnheim
(49.4488°N, 8.2383°E)
Time: 06:16:58
(UTC+00:00)

Iridium 4 Rocket - Pass Details

Date: 19 May 2025
Orbit: 582 x 887 km, 86.9° (Epoch: 14 June)

Event Time Altitude Azimuth Distance (km) Brightness Sun altitude
Rises 19:58:37 0° 357° (N) 3,141 7.4 -7.1°
Reaches altitude 10° 20:00:51 10° 358° (N) 2,262 6.6 -7.3°
Maximum altitude 20:05:56 82° 87° (E) 802 3.6 -7.9°
Drops below altitude 10° 20:11:26 10° 175° (S) 2,436 5.7 -8.6°
Enters shadow 20:13:22 - 176° (S) 3,191 6.2 -8.8°
